SCP
0 0 0 0 0 0 0 0 0 0 0 0 0 0 0 0 0 0 0 0 0 0 0 0 0 0 0 0 0 0 0 0 0 0 0 0 0 0 0 0 0 0 0 0 0 0 0 0 0 0 0 0 0 0
0 0 0 0 0 0 0 0 0 0 0 0 0 0 0 0 0 0 0 0 0 0 0 0 0 0 0 0 0 0 0 0 0 0 0 0 0 0 0 0 0 0 0 0 0 0 0 0 0 0 0 0 0 0
0 0 0 0 0 0 0 0 0 0 0 0 0 0 0 0 0 0 0 0 0 0 0 0 0 0 0 0 0 0 0 0 0 0 0 0 0 0 0 0 0 0 0 0 0 0 0 0 0 0 0 0 0 0
0 0 0 0 0 0 0 0 0 0 0 0 0 0 0 0 0 0 0 0 0 0 0 0 0 0 0 0 0 0 0 0 0 0 0 0 0 0 0 0 0 0 0 0 0 0 0 0 0 0 0 0 0 0
0 0 0 0 0 0 0 0 0 0 0 0 0 0 0 0 0 0 0 0 0 0 0 0 0 0 0 0 0 0 0 0 0 0 0 0 0 0 0 0 0 0 0 0 0 0 0 0 0 0 0 0 0 0
0 0 0 0 0 0 0 0 0 0 0 0 0 0 0 0 0 0 0 0 0 0 0 0 0 0 0 0 0 0 0 0 0 0 0 0 0 0 0 0 0 0 0 0 0 0 0 0 0 0 0 0 0 0
0 0 0 0 0 0 0 0 0 0 0 0 0 0 0 0 0 0 0 0 0 0 0 0 0 0 0 0 0 0 0 0 0 0 0 0 0 0 0 0 0 0 0 0 0 0 0 0 0 0 0 0 0 0
0 0 0 0 0 0 0 0 0 0 0 0 0 0 0 0 0 0 0 0 0 0 0 0 0 0 0 0 0 0 0 0 0 0 0 0 0 0 0 0 0 0 0 0 0 0 0 0 0 0 0 0 0 0
0 0 0 0 0 0 0 0 0 0 0 0 0 0 0 0 0 0 0 0 0 0 0 0 0 0 0 0 0 0 0 0 0 0 0 0 0 0 0 0 0 0 0 0 0 0 0 0 0 0 0 0 0 0
0 0 0 0 0 0 0 0 0 0 0 0 0 0 0 0 0 0 0 0 0 0 0 0 0 0 0 0 0 0 0 0 0 0 0 0 0 0 0 0 0 0 0 0 0 0 0 0 0 0 0 0 0 0
0 0 0 0 0 0 0 0 0 0 0 0 0 0 0 0 0 0 0 0 0 0 0 0 0 0 0 0 0 0 0 0 0 0 0 0 0 0 0 0 0 0 0 0 0 0 0 0 0 0 0 0 0 0
0 0 0 0 0 0 0 0 0 0 0 0 0 0 0 0 0 0 0 0 0 0 0 0 0 0 0 0 0 0 0 0 0 0 0 0 0 0 0 0 0 0 0 0 0 0 0 0 0 0 0 0 0 0
0 0 0 0 0 0 0 0 0 0 0 0 0 0 0 0 0 0 0 0 0 0 0 0 0 0 0 0 0 0 0 0 0 0 0 0 0 0 0 0 0 0 0 0 0 0 0 0 0 0 0 0 0 0
0 0 0 0 0 0 0 0 0 0 0 0 0 0 0 0 0 0 0 0 0 0 0 0 0 0 0 0 0 0 0 0 0 0 0 0 0 0 0 0 0 0 0 0 0 0 0 0 0 0 0 0 0 0
0 0 0 0 0 0 0 0 0 0 0 0 0 0 0 0 0 0 0 0 0 0 0 0 0 0 0 0 0 0 0 0 0 0 0 0 0 0 0 0 0 0 0 0 0 0 0 0 0 0 0 0 0 -0
0 0 0 0 0 0 0 0 0 0 0 0 0 0 0 0 0 0 0 0 0 0 0 0 0 0 0 0 0 0 0 0 0 0 0 0 0 0 0 0 0 0 0 0 0 0 0 0 0 0 0 0 0 0
0 0 0 0 0 0 0 0 0 0 0 0 0 0 0 0 0 0 0 0 0 0 0 0 0 0 0 0 0 0 0 0 0 0 0 0 0 0 0 0 0 0 0 0 0 0 0 0 0 0 0 0 0 0
0 0 0 0 0 0 0 0 0 0 0 0 0 0 0 0 0 0 0 0 0 0 0 0 0 0 0 0 0 0 0 0 0 0 0 0 0 0 0 0 0 0 0 0 0 0 0 0 0 0 0 0 0 0
0 0 0 0 0 0 0 0 0 0 0 0 0 0 0 0 0 0 0 0 0 0 0 0 0 0 0 0 0 0 0 0 0 0 0 0 0 0 0 0 0 0 0 0 0 0 0 0 0 0 0 0 0 0
0 0 0 0 0 0 0 0 0 0 0 0 0 0 0 0 0 0 0 0 0 0 0 0 0 0 0 0 0 0 0 0 0 0 0 0 0 0 0 0 0 0 0 0 0 0 0 0 0 0 0 0 0 0
0 0 0 0 0 0 0 0 0 0 0 0 0 0 0 0 0 0 0 0 0 0 0 0 0 0 0 0 0 0 0 0 0 0 0 0 0 0 0 0 0 0 0 0 0 0 0 0 0 0 0 0 0 0
0 0 0 0 0 0 0 0 0 0 0 0 0 0 0 0 0 0 0 0 0 0 0 0 0 0 0 0 0 0 0 0 0 0 0 0 0 0 0 0 0 0 0 0 0 0 0 0 0 0 0 0 0 0
0 0 0 0 0 0 0 0 0 0 0 0 0 0 0 0 0 0 0 0 0 0 0 0 0 0 0 0 0 0 0 0 0 0 0 0 0 0 0 0 0 0 0 0 0 0 0 0 0 0 0 0 0 0
0 0 0 0 0 0 0 0 0 0 0 0 0 0 0 0 0 0 0 0 0 0 0 0 0 0 0 0 0 0 0 0 0 0 0 0 0 0 0 0 0 0 0 0 0 0 0 0 -0 0 0 0 -0 0
0 0 0 0 0 0 0 0 0 0 0 0 0 0 0 0 0 0 0 0 0 0 0 0 0 0 0 0 0 0 0 0 0 0 0 0 -0 0 0 0 0 0 0 0 0 0 0 0 0 -0 0 0 0 -0
0 0 0 0 0 0 0 0 0 0 0 0 0 0 0 0 0 0 0 0 0 0 0 0 0 0 0 0 0 0 0 0 0 0 0 0 0 0 0 0 0 0 -0 0 0 0 -0 0 -0 -0 -0 0 0 -0
0 0 0 0 0 0 0 0 0 0 0 0 0 0 0 0 0 0 0 0 0 0 0 0 0 0 0 0 0 0 0 0 0 0 0 0 0 0 0 0 0 0 -0 0 0 -0 -0 0 0 0 0 0 0 0
0 0 0 0 0 0 0 0 0 0 0 0 0 0 0 0 0 0 0 0 0 0 0 0 0 0 -0 0 0 0 0 0 0 0 0 -0 -0 0 -0 0 0 0 0 0 0 -0 0 0 0 0 0 0 0 0
0 0 0 0 0 0 0 0 0 0 0 0 0 0 0 0 0 0 0 0 0 0 0 0 0 0 0 0 0 0 0 0 0 0 0 -0 0 -0 0 0 0 0 -0 0 0 0 0 0 0 0 0 0 -0 0
0 0 0 0 0 0 0 0 0 0 0 0 0 0 0 0 0 0 0 0 0 0 0 0 0 0 0 0 0 0 0 0 0 -0 -0 0 0 -0 -0 0 -0 0 0 -0 0 0 0 0 0 -0 -0 -0 0 -0
0 0 0 0 0 0 0 0 0 0 0 0 0 -0 0 -0 0 0 0 0 0 0 0 0 0 0 0 0 0 0 0 0 0 0 -0 -0 -0 -0 0 -0 0 0 0 0 0 0 0 0 0 0 0 0 0 0
0 0 0 0 0 0 0 0 0 0 0 0 0 0 0 0 0 0 0 0 0 0 0 0 0 0 0 0 0 0 0 0 0 0 0 -0 -0 0 0 0 0 0 0 0 -0 -0 0 0 0 0 -0 0 0 0
0 0 0 0 0 0 0 0 0 0 0 0 0 0 0 -0 -0 0 0 0 0 0 0 0 0 0 0 0 0 0 0 0 0 0 -0 -0 -0 -0 0 0 0 0 -0 0 0 0 -0 0 0 0 0 0 0 0
Wind_Speed_500mb
44 42 39 34 33 29 26 27 21 24 19 18 13 12 13 14 14 8 5 15 1 16 7 3 6 6 6 13 12 26 8 13 11 12 15 16 9 12 10 11 7 14 11 15 12 18 14 20 10 11 13 16 21 27
33 33 31 26 27 26 23 18 22 24 20 18 15 11 11 10 11 6 3 15 6 8 11 3 1 1 4 7 17 7 10 9 14 6 3 10 8 11 14 12 7 8 8 12 13 10 6 11 11 12 22 29 32 35
29 28 23 14 16 17 17 21 22 24 18 17 16 13 10 9 8 3 5 14 4 10 11 13 14 3 1 2 3 11 8 4 5 9 17 6 5 8 14 8 1 12 3 10 9 11 9 13 24 23 27 34 33 39
26 25 16 15 14 20 21 21 23 24 17 17 16 16 11 9 7 4 3 12 6 12 12 19 6 4 1 4 2 7 2 5 5 11 16 10 10 3 7 9 10 14 6 7 14 9 15 10 24 27 33 40 45 49
28 25 22 27 27 29 28 26 28 30 22 19 17 18 14 10 7 5 6 6 4 4 15 17 14 6 4 4 6 6 12 13 15 12 11 11 6 5 6 8 11 7 11 7 10 15 14 24 31 36 37 41 47 55
26 25 23 26 36 34 33 32 33 33 26 24 20 20 16 11 7 3 9 5 4 5 11 8 15 11 7 9 10 10 10 7 8 7 3 3 3 9 6 4 13 7 2 5 11 17 24 31 34 37 43 47 50 56
22 24 24 22 24 40 44 42 41 36 28 24 23 22 18 13 11 9 4 6 8 9 8 6 12 15 15 14 11 13 9 5 6 5 8 4 10 8 6 7 18 7 2 7 12 18 30 31 39 40 42 47 51 54
21 24 25 23 22 23 22 33 38 31 24 20 20 22 16 11 9 7 11 7 7 4 8 7 7 18 24 17 13 7 10 10 5 4 5 12 10 10 4 19 9 3 4 11 17 26 33 37 39 42 44 50 55 59
21 22 26 24 21 22 20 22 23 21 18 18 18 16 10 9 11 15 12 11 10 8 10 11 10 10 27 22 9 13 8 9 8 8 5 3 8 5 15 14 8 3 10 19 28 32 32 34 38 41 45 50 51 55
21 21 23 21 19 18 19 17 16 17 17 22 27 7 13 18 17 11 4 9 12 14 11 14 18 9 27 19 20 13 11 4 8 6 8 9 5 23 15 8 2 7 13 21 28 30 34 39 40 43 44 39 42 53
21 20 20 19 18 16 16 14 16 20 26 25 11 5 3 19 12 10 12 13 17 10 18 28 20 14 14 16 11 7 5 7 6 10 7 10 8 25 19 11 1 8 16 21 22 22 28 32 38 43 40 42 41 50
20 20 19 17 16 14 13 13 29 33 24 17 8 14 13 11 13 11 11 10 10 13 14 30 26 17 17 7 7 9 6 5 4 10 7 6 14 26 17 5 5 11 17 18 17 21 25 30 33 34 37 37 44 46
19 19 16 15 14 13 14 20 37 31 26 22 7 16 13 12 3 13 18 11 10 13 20 30 22 17 13 17 6 8 8 8 6 7 7 8 29 18 9 5 9 14 13 12 15 18 24 28 30 35 32 34 40 42
20 20 15 14 12 14 14 32 37 31 15 9 13 4 12 13 14 12 13 17 14 22 34 37 33 21 16 13 7 8 3 3 7 8 10 18 25 15 4 6 11 10 7 10 12 19 25 27 27 27 31 32 35 41
18 18 16 15 13 15 18 41 39 29 10 8 10 8 17 12 8 14 8 15 17 30 41 34 23 17 12 6 7 4 9 8 8 6 16 33 20 9 4 7 6 4 6 8 12 17 22 26 26 26 31 33 39 41
16 12 15 17 15 14 33 40 35 14 5 7 10 13 12 11 20 20 22 24 24 37 37 32 10 11 10 8 10 12 8 8 11 7 29 19 12 6 7 5 1 5 6 8 11 10 14 19 23 23 27 36 32 39
13 5 10 11 16 34 36 30 19 9 7 6 11 16 14 6 4 26 28 26 30 39 19 12 11 9 6 8 11 7 7 10 21 16 18 9 8 8 7 4 8 7 7 8 8 8 10 9 14 20 24 27 27 33
11 10 14 17 36 35 25 13 7 7 12 16 18 13 14 5 7 14 15 24 32 33 18 6 7 11 10 10 10 11 12 21 16 14 8 7 8 10 6 11 10 10 9 8 7 5 11 12 13 18 18 23 25 27
14 13 23 41 38 14 10 12 6 8 17 11 13 12 16 13 5 6 14 26 19 7 19 11 5 3 6 5 21 19 21 18 18 10 6 8 9 10 12 14 14 12 10 9 6 9 11 15 17 18 19 24 29 30
10 22 39 38 27 7 6 7 9 8 8 9 13 15 11 12 11 16 22 24 21 21 12 8 7 5 14 17 13 18 18 13 9 12 15 10 8 11 13 12 12 12 10 7 10 11 10 12 15 18 19 23 26 33
16 22 30 14 8 6 3 8 10 4 4 8 12 16 10 16 16 18 20 21 23 16 9 12 13 15 20 19 14 12 12 9 4 3 6 10 10 12 11 13 14 8 9 8 9 12 13 12 12 14 19 23 23 23
19 14 16 9 9 7 5 7 3 8 9 10 15 15 9 14 15 11 15 14 9 14 12 3 18 16 13 10 8 8 8 13 6 3 6 12 15 16 14 15 14 13 13 12 12 12 12 11 12 14 15 15 17 22
16 19 6 5 5 2 3 8 8 9 8 13 14 10 9 7 12 10 6 9 9 20 25 13 12 9 5 9 7 7 10 14 9 10 7 8 13 14 17 15 16 17 17 16 16 15 15 15 13 12 13 15 18 21
20 3 2 4 5 5 7 9 6 6 5 9 10 7 10 11 15 10 10 17 22 25 27 26 24 21 18 14 12 14 14 10 10 9 12 16 16 17 16 17 19 18 19 18 15 13 11 11 10 13 15 17 18 21
1 2 4 7 4 4 5 6 5 4 5 5 6 3 4 8 9 9 13 26 23 26 29 28 26 23 22 21 21 20 17 16 17 15 16 17 19 18 19 20 20 19 16 14 10 7 5 5 8 10 12 17 24 23
1 5 3 2 2 3 2 6 4 5 3 3 3 3 3 4 6 7 15 27 32 36 37 33 27 22 24 25 27 27 18 17 15 19 20 13 17 19 23 24 22 16 10 9 5 3 4 3 7 9 13 11 21 21
3 4 6 6 2 4 7 6 7 3 4 1 1 3 4 7 10 3 5 7 22 30 31 28 25 25 27 26 22 19 18 19 16 13 20 19 16 16 23 21 18 15 13 8 2 3 9 7 5 6 7 10 12 18
3 4 1 8 9 8 3 5 3 2 3 4 3 7 5 4 3 2 11 4 3 16 25 26 27 27 22 25 22 19 21 20 17 16 20 19 20 23 21 21 17 19 6 5 3 3 7 7 4 3 4 5 9 14
4 2 5 7 7 9 6 3 5 3 9 9 4 5 3 1 3 5 4 8 16 23 25 31 29 24 24 20 20 23 24 19 20 22 30 30 28 25 22 17 11 12 10 12 11 7 3 6 3 4 5 4 4 7
7 13 8 11 11 7 3 3 7 12 18 22 22 30 7 9 9 7 8 12 17 22 27 31 29 27 23 21 24 25 19 15 19 26 27 24 27 24 23 20 16 13 7 11 9 4 2 2 9 5 4 8 8 14
5 13 6 7 2 6 11 16 11 12 17 22 26 16 14 18 16 15 12 12 19 20 23 23 24 22 23 25 23 22 18 19 16 18 24 24 23 26 23 17 14 10 7 4 11 7 4 3 4 10 8 10 12 14
15 14 8 11 10 14 18 16 11 12 8 3 3 7 9 11 7 4 6 9 15 19 24 26 23 23 20 19 14 14 18 19 21 23 18 23 25 21 19 20 16 4 10 8 7 4 1 13 14 10 14 15 13 19
15 19 10 2 7 14 13 7 7 9 6 6 5 4 8 9 4 4 8 7 12 25 34 31 19 12 14 10 9 12 19 26 31 30 24 24 29 23 14 5 10 9 11 12 8 13 14 9 10 12 15 19 19 18
Wind_Direction_500mb
285 285 284 282 275 270 265 269 274 274 278 288 277 294 316 336 348 8 253 328 228 273 80 351 343 343 275 260 286 112 200 215 241 257 264 278 239 264 258 278 313 260 262 263 224 280 265 22 292 337 11 323 333 319
288 286 283 275 268 261 261 267 269 272 272 278 268 270 297 321 343 18 56 328 248 255 23 197 200 70 34 14 338 197 6 342 11 271 307 299 251 251 279 270 166 259 341 339 338 33 113 341 337 341 319 312 310 309
287 285 283 260 264 257 250 258 263 271 267 267 261 250 274 295 328 327 346 342 297 259 211 206 172 121 87 327 308 291 196 18 236 294 309 296 302 334 276 256 105 164 354 272 333 72 356 332 316 312 316 307 300 302
279 280 260 229 223 232 258 265 268 272 256 253 254 238 250 266 294 266 89 318 290 291 268 147 178 179 75 305 281 224 241 197 244 230 243 260 254 172 297 37 301 46 186 349 278 287 350 292 341 326 320 313 309 303
275 275 256 225 232 245 255 259 268 272 258 244 247 230 235 246 262 266 265 275 320 285 322 125 153 165 127 88 95 153 193 195 204 201 229 230 18 293 209 325 264 102 26 287 358 14 338 323 321 314 308 307 308 306
273 264 265 246 237 244 251 256 261 265 257 241 237 223 225 230 222 61 196 231 281 315 279 191 105 152 138 114 115 136 157 171 218 237 227 53 20 268 263 238 80 62 51 30 336 326 318 314 313 315 310 309 320 320
272 263 259 263 262 247 247 252 259 265 252 243 233 216 214 221 208 223 1 197 192 188 246 208 152 171 164 152 138 128 148 160 239 137 228 135 159 255 291 266 104 117 341 331 317 322 320 321 315 314 326 328 319 316
272 262 258 257 272 274 268 255 254 253 243 238 227 208 205 211 217 237 249 203 176 207 247 257 111 157 189 185 158 186 174 178 182 43 184 233 131 227 265 100 123 123 297 304 328 321 316 314 317 331 333 323 327 324
270 265 256 258 265 273 267 253 242 236 225 217 195 178 183 193 202 198 228 198 203 218 273 226 183 163 179 219 125 179 234 208 112 239 176 220 179 227 120 140 163 58 337 329 321 321 319 323 336 336 326 330 326 324
268 266 248 255 259 263 262 259 228 205 193 172 150 157 198 184 212 195 163 173 195 211 237 256 245 131 185 174 193 164 197 204 202 121 103 236 181 113 141 137 88 338 333 328 323 327 331 332 335 331 332 331 327 326
270 249 245 253 254 255 254 246 190 168 159 154 179 175 115 169 152 194 201 209 185 213 206 227 211 158 200 193 170 237 163 148 241 120 248 181 202 150 162 162 263 326 327 323 323 328 334 335 340 333 332 332 330 333
262 237 243 252 250 243 241 215 168 160 163 181 167 139 148 195 205 197 198 202 215 216 168 195 179 179 157 200 111 183 206 184 256 116 234 230 108 134 159 161 284 316 323 322 331 345 339 344 343 335 334 335 338 346
250 229 236 250 242 231 223 191 170 170 167 160 189 187 196 178 169 208 188 188 195 181 160 176 162 134 159 210 119 193 201 212 86 218 217 66 130 139 144 233 286 309 314 325 355 347 350 348 347 351 347 350 346 347
222 218 225 238 238 226 212 176 166 167 169 187 193 205 210 187 214 200 203 195 127 160 165 171 166 182 148 174 166 201 128 173 227 233 200 140 146 138 187 271 291 304 314 6 359 5 5 5 2 2 3 3 13 16
211 213 222 227 230 209 185 169 172 176 175 231 230 222 204 255 185 161 114 107 163 155 163 155 162 151 162 123 213 142 181 227 217 213 107 118 128 135 241 269 285 338 25 38 17 20 25 30 30 27 28 31 37 39
202 216 232 228 210 189 164 169 175 183 217 233 244 257 204 192 177 178 186 160 163 163 161 160 168 167 177 171 183 188 207 225 155 114 113 124 123 179 212 235 163 72 76 51 30 31 39 42 34 34 27 28 25 36
186 207 227 208 185 157 156 160 177 216 236 240 237 231 282 294 159 173 179 155 169 167 178 161 178 166 129 201 194 184 216 106 110 118 111 109 167 189 207 138 122 114 95 57 52 35 24 25 39 23 19 21 19 27
164 220 221 179 153 149 149 165 194 224 223 214 227 200 210 286 180 160 182 145 185 191 175 57 108 179 198 183 182 141 123 118 131 111 120 156 167 182 160 135 126 119 97 77 64 54 42 22 27 25 24 24 23 25
208 187 163 156 150 148 152 193 230 248 219 196 191 189 188 189 226 106 173 177 194 166 128 192 211 211 169 86 109 140 141 154 158 157 137 134 147 153 138 136 134 125 106 85 77 60 53 50 48 42 40 37 32 24
167 165 162 150 149 165 155 185 231 251 205 196 195 177 170 179 158 172 167 178 177 176 164 191 110 326 126 107 117 138 147 150 174 186 163 153 158 147 145 162 145 141 121 110 81 79 77 62 50 44 47 46 38 33
157 169 162 137 152 259 210 230 204 152 215 217 179 160 167 165 176 141 134 160 170 187 211 128 132 92 87 107 109 130 146 173 220 354 65 152 162 148 150 154 150 152 130 121 107 88 75 65 61 56 51 46 40 32
155 127 155 199 228 203 243 211 188 172 201 191 199 168 186 171 150 147 151 176 167 143 134 118 132 137 134 135 139 174 190 193 197 264 211 159 155 147 156 155 153 132 124 116 108 97 84 76 67 55 47 39 30 27
111 124 60 15 310 237 214 163 217 196 185 189 176 165 165 161 170 165 210 180 143 191 193 169 141 170 139 148 157 171 175 174 209 217 188 162 146 146 154 146 144 137 129 119 110 99 87 81 58 54 39 30 24 22
131 123 265 251 239 252 172 196 180 177 149 182 186 184 157 136 162 200 211 208 210 188 191 184 199 206 205 203 204 205 197 199 203 194 146 156 142 153 152 144 140 135 131 124 114 103 92 73 54 40 30 17 6 3
122 269 272 286 252 236 183 159 183 137 56 99 145 161 137 160 194 219 216 207 193 193 186 188 200 208 215 218 213 201 193 201 184 180 178 179 143 158 151 147 144 141 139 138 123 104 81 53 27 10 2 15 11 2
347 172 225 353 123 3 327 174 121 121 134 154 88 83 127 237 243 236 224 217 198 189 192 195 201 205 211 205 193 189 183 197 188 173 177 182 169 169 157 158 159 162 167 146 127 73 296 313 323 344 0 46 25 19
251 193 189 206 23 175 221 180 147 165 142 136 96 314 230 221 221 169 155 180 204 201 199 201 203 197 195 185 189 174 171 177 176 183 184 171 158 164 162 164 160 146 160 152 130 319 322 340 318 344 10 28 38 28
283 315 93 209 208 193 242 291 90 135 120 170 227 223 233 266 35 71 136 152 110 169 178 181 180 178 185 173 178 183 181 178 161 151 156 163 166 162 160 146 141 162 155 148 123 355 18 10 23 56 46 68 47 34
282 180 158 187 235 226 227 169 134 140 169 182 266 297 260 22 57 82 106 152 167 162 159 165 166 163 150 162 175 168 168 166 184 187 169 179 169 173 168 160 140 154 156 134 120 110 90 37 82 88 112 86 358 337
219 186 168 209 218 217 138 96 152 200 208 221 240 295 67 96 88 102 141 151 164 169 165 165 164 167 168 172 174 155 167 178 174 171 181 175 176 176 176 180 179 169 176 197 160 187 282 117 63 119 335 291 332 342
187 188 231 211 19 208 164 156 194 243 253 255 172 174 157 123 106 84 87 120 152 162 167 166 175 173 169 171 168 174 173 168 176 168 172 174 175 174 169 168 169 163 161 179 217 207 265 295 297 271 253 309 315 316
175 204 219 164 191 180 200 193 240 262 262 163 286 119 123 84 80 54 96 120 149 143 144 148 143 154 168 154 160 174 182 178 179 170 167 169 169 165 169 166 168 184 233 236 264 290 312 277 262 291 302 296 301 314
196 202 199 245 157 166 209 187 182 196 148 213 129 79 89 136 146 195 172 111 158 157 144 132 148 110 132 139 155 159 161 176 174 174 176 156 163 158 139 202 246 265 260 219 236 245 241 255 292 285 285 282 296 317
Wind_Speed_850mb
44 42 39 34 33 29 26 27 21 24 19 18 13 12 13 14 14 8 5 15 1 16 7 3 6 6 6 13 12 26 8 13 11 12 15 16 9 12 10 11 7 14 11 15 12 18 14 20 10 11 13 16 21 27
33 33 31 26 27 26 23 18 22 24 20 18 15 11 11 10 11 6 3 15 6 8 11 3 1 1 4 7 17 7 10 9 14 6 3 10 8 11 14 12 7 8 8 12 13 10 6 11 11 12 22 29 32 35
29 28 23 14 16 17 17 21 22 24 18 17 16 13 10 9 8 3 5 14 4 10 11 13 14 3 1 2 3 11 8 4 5 9 17 6 5 8 14 8 1 12 3 10 9 11 9 13 24 23 27 34 33 39
26 25 16 15 14 20 21 21 23 24 17 17 16 16 11 9 7 4 3 12 6 12 12 19 6 4 1 4 2 7 2 5 5 11 16 10 10 3 7 9 10 14 6 7 14 9 15 10 24 27 33 40 45 49
28 25 22 27 27 29 28 26 28 30 22 19 17 18 14 10 7 5 6 6 4 4 15 17 14 6 4 4 6 6 12 13 15 12 11 11 6 5 6 8 11 7 11 7 10 15 14 24 31 36 37 41 47 55
26 25 23 26 36 34 33 32 33 33 26 24 20 20 16 11 7 3 9 5 4 5 11 8 15 11 7 9 10 10 10 7 8 7 3 3 3 9 6 4 13 7 2 5 11 17 24 31 34 37 43 47 50 56
22 24 24 22 24 40 44 42 41 36 28 24 23 22 18 13 11 9 4 6 8 9 8 6 12 15 15 14 11 13 9 5 6 5 8 4 10 8 6 7 18 7 2 7 12 18 30 31 39 40 42 47 51 54
21 24 25 23 22 23 22 33 38 31 24 20 20 22 16 11 9 7 11 7 7 4 8 7 7 18 24 17 13 7 10 10 5 4 5 12 10 10 4 19 9 3 4 11 17 26 33 37 39 42 44 50 55 59
21 22 26 24 21 22 20 22 23 21 18 18 18 16 10 9 11 15 12 11 10 8 10 11 10 10 27 22 9 13 8 9 8 8 5 3 8 5 15 14 8 3 10 19 28 32 32 34 38 41 45 50 51 55
21 21 23 21 19 18 19 17 16 17 17 22 27 7 13 18 17 11 4 9 12 14 11 14 18 9 27 19 20 13 11 4 8 6 8 9 5 23 15 8 2 7 13 21 28 30 34 39 40 43 44 39 42 53
21 20 20 19 18 16 16 14 16 20 26 25 11 5 3 19 12 10 12 13 17 10 18 28 20 14 14 16 11 7 5 7 6 10 7 10 8 25 19 11 1 8 16 21 22 22 28 32 38 43 40 42 41 50
20 20 19 17 16 14 13 13 29 33 24 17 8 14 13 11 13 11 11 10 10 13 14 30 26 17 17 7 7 9 6 5 4 10 7 6 14 26 17 5 5 11 17 18 17 21 25 30 33 34 37 37 44 46
19 19 16 15 14 13 14 20 37 31 26 22 7 16 13 12 3 13 18 11 10 13 20 30 22 17 13 17 6 8 8 8 6 7 7 8 29 18 9 5 9 14 13 12 15 18 24 28 30 35 32 34 40 42
20 20 15 14 12 14 14 32 37 31 15 9 13 4 12 13 14 12 13 17 14 22 34 37 33 21 16 13 7 8 3 3 7 8 10 18 25 15 4 6 11 10 7 10 12 19 25 27 27 27 31 32 35 41
18 18 16 15 13 15 18 41 39 29 10 8 10 8 17 12 8 14 8 15 17 30 41 34 23 17 12 6 7 4 9 8 8 6 16 33 20 9 4 7 6 4 6 8 12 17 22 26 26 26 31 33 39 41
16 12 15 17 15 14 33 40 35 14 5 7 10 13 12 11 20 20 22 24 24 37 37 32 10 11 10 8 10 12 8 8 11 7 29 19 12 6 7 5 1 5 6 8 11 10 14 19 23 23 27 36 32 39
13 5 10 11 16 34 36 30 19 9 7 6 11 16 14 6 4 26 28 26 30 39 19 12 11 9 6 8 11 7 7 10 21 16 18 9 8 8 7 4 8 7 7 8 8 8 10 9 14 20 24 27 27 33
11 10 14 17 36 35 25 13 7 7 12 16 18 13 14 5 7 14 15 24 32 33 18 6 7 11 10 10 10 11 12 21 16 14 8 7 8 10 6 11 10 10 9 8 7 5 11 12 13 18 18 23 25 27
14 13 23 41 38 14 10 12 6 8 17 11 13 12 16 13 5 6 14 26 19 7 19 11 5 3 6 5 21 19 21 18 18 10 6 8 9 10 12 14 14 12 10 9 6 9 11 15 17 18 19 24 29 30
10 22 39 38 27 7 6 7 9 8 8 9 13 15 11 12 11 16 22 24 21 21 12 8 7 5 14 17 13 18 18 13 9 12 15 10 8 11 13 12 12 12 10 7 10 11 10 12 15 18 19 23 26 33
16 22 30 14 8 6 3 8 10 4 4 8 12 16 10 16 16 18 20 21 23 16 9 12 13 15 20 19 14 12 12 9 4 3 6 10 10 12 11 13 14 8 9 8 9 12 13 12 12 14 19 23 23 23
19 14 16 9 9 7 5 7 3 8 9 10 15 15 9 14 15 11 15 14 9 14 12 3 18 16 13 10 8 8 8 13 6 3 6 12 15 16 14 15 14 13 13 12 12 12 12 11 12 14 15 15 17 22
16 19 6 5 5 2 3 8 8 9 8 13 14 10 9 7 12 10 6 9 9 20 25 13 12 9 5 9 7 7 10 14 9 10 7 8 13 14 17 15 16 17 17 16 16 15 15 15 13 12 13 15 18 21
20 3 2 4 5 5 7 9 6 6 5 9 10 7 10 11 15 10 10 17 22 25 27 26 24 21 18 14 12 14 14 10 10 9 12 16 16 17 16 17 19 18 19 18 15 13 11 11 10 13 15 17 18 21
1 2 4 7 4 4 5 6 5 4 5 5 6 3 4 8 9 9 13 26 23 26 29 28 26 23 22 21 21 20 17 16 17 15 16 17 19 18 19 20 20 19 16 14 10 7 5 5 8 10 12 17 24 23
1 5 3 2 2 3 2 6 4 5 3 3 3 3 3 4 6 7 15 27 32 36 37 33 27 22 24 25 27 27 18 17 15 19 20 13 17 19 23 24 22 16 10 9 5 3 4 3 7 9 13 11 21 21
3 4 6 6 2 4 7 6 7 3 4 1 1 3 4 7 10 3 5 7 22 30 31 28 25 25 27 26 22 19 18 19 16 13 20 19 16 16 23 21 18 15 13 8 2 3 9 7 5 6 7 10 12 18
3 4 1 8 9 8 3 5 3 2 3 4 3 7 5 4 3 2 11 4 3 16 25 26 27 27 22 25 22 19 21 20 17 16 20 19 20 23 21 21 17 19 6 5 3 3 7 7 4 3 4 5 9 14
4 2 5 7 7 9 6 3 5 3 9 9 4 5 3 1 3 5 4 8 16 23 25 31 29 24 24 20 20 23 24 19 20 22 30 30 28 25 22 17 11 12 10 12 11 7 3 6 3 4 5 4 4 7
7 13 8 11 11 7 3 3 7 12 18 22 22 30 7 9 9 7 8 12 17 22 27 31 29 27 23 21 24 25 19 15 19 26 27 24 27 24 23 20 16 13 7 11 9 4 2 2 9 5 4 8 8 14
5 13 6 7 2 6 11 16 11 12 17 22 26 16 14 18 16 15 12 12 19 20 23 23 24 22 23 25 23 22 18 19 16 18 24 24 23 26 23 17 14 10 7 4 11 7 4 3 4 10 8 10 12 14
15 14 8 11 10 14 18 16 11 12 8 3 3 7 9 11 7 4 6 9 15 19 24 26 23 23 20 19 14 14 18 19 21 23 18 23 25 21 19 20 16 4 10 8 7 4 1 13 14 10 14 15 13 19
15 19 10 2 7 14 13 7 7 9 6 6 5 4 8 9 4 4 8 7 12 25 34 31 19 12 14 10 9 12 19 26 31 30 24 24 29 23 14 5 10 9 11 12 8 13 14 9 10 12 15 19 19 18
Wind_Direction_850mb
285 285 284 282 275 270 265 269 274 274 278 288 277 294 316 336 348 8 253 328 228 273 80 351 343 343 275 260 286 112 200 215 241 257 264 278 239 264 258 278 313 260 262 263 224 280 265 22 292 337 11 323 333 319
288 286 283 275 268 261 261 267 269 272 272 278 268 270 297 321 343 18 56 328 248 255 23 197 200 70 34 14 338 197 6 342 11 271 307 299 251 251 279 270 166 259 341 339 338 33 113 341 337 341 319 312 310 309
287 285 283 260 264 257 250 258 263 271 267 267 261 250 274 295 328 327 346 342 297 259 211 206 172 121 87 327 308 291 196 18 236 294 309 296 302 334 276 256 105 164 354 272 333 72 356 332 316 312 316 307 300 302
279 280 260 229 223 232 258 265 268 272 256 253 254 238 250 266 294 266 89 318 290 291 268 147 178 179 75 305 281 224 241 197 244 230 243 260 254 172 297 37 301 46 186 349 278 287 350 292 341 326 320 313 309 303
275 275 256 225 232 245 255 259 268 272 258 244 247 230 235 246 262 266 265 275 320 285 322 125 153 165 127 88 95 153 193 195 204 201 229 230 18 293 209 325 264 102 26 287 358 14 338 323 321 314 308 307 308 306
273 264 265 246 237 244 251 256 261 265 257 241 237 223 225 230 222 61 196 231 281 315 279 191 105 152 138 114 115 136 157 171 218 237 227 53 20 268 263 238 80 62 51 30 336 326 318 314 313 315 310 309 320 320
272 263 259 263 262 247 247 252 259 265 252 243 233 216 214 221 208 223 1 197 192 188 246 208 152 171 164 152 138 128 148 160 239 137 228 135 159 255 291 266 104 117 341 331 317 322 320 321 315 314 326 328 319 316
272 262 258 257 272 274 268 255 254 253 243 238 227 208 205 211 217 237 249 203 176 207 247 257 111 157 189 185 158 186 174 178 182 43 184 233 131 227 265 100 123 123 297 304 328 321 316 314 317 331 333 323 327 324
270 265 256 258 265 273 267 253 242 236 225 217 195 178 183 193 202 198 228 198 203 218 273 226 183 163 179 219 125 179 234 208 112 239 176 220 179 227 120 140 163 58 337 329 321 321 319 323 336 336 326 330 326 324
268 266 248 255 259 263 262 259 228 205 193 172 150 157 198 184 212 195 163 173 195 211 237 256 245 131 185 174 193 164 197 204 202 121 103 236 181 113 141 137 88 338 333 328 323 327 331 332 335 331 332 331 327 326
270 249 245 253 254 255 254 246 190 168 159 154 179 175 115 169 152 194 201 209 185 213 206 227 211 158 200 193 170 237 163 148 241 120 248 181 202 150 162 162 263 326 327 323 323 328 334 335 340 333 332 332 330 333
262 237 243 252 250 243 241 215 168 160 163 181 167 139 148 195 205 197 198 202 215 216 168 195 179 179 157 200 111 183 206 184 256 116 234 230 108 134 159 161 284 316 323 322 331 345 339 344 343 335 334 335 338 346
250 229 236 250 242 231 223 191 170 170 167 160 189 187 196 178 169 208 188 188 195 181 160 176 162 134 159 210 119 193 201 212 86 218 217 66 130 139 144 233 286 309 314 325 355 347 350 348 347 351 347 350 346 347
222 218 225 238 238 226 212 176 166 167 169 187 193 205 210 187 214 200 203 195 127 160 165 171 166 182 148 174 166 201 128 173 227 233 200 140 146 138 187 271 291 304 314 6 359 5 5 5 2 2 3 3 13 16
211 213 222 227 230 209 185 169 172 176 175 231 230 222 204 255 185 161 114 107 163 155 163 155 162 151 162 123 213 142 181 227 217 213 107 118 128 135 241 269 285 338 25 38 17 20 25 30 30 27 28 31 37 39
202 216 232 228 210 189 164 169 175 183 217 233 244 257 204 192 177 178 186 160 163 163 161 160 168 167 177 171 183 188 207 225 155 114 113 124 123 179 212 235 163 72 76 51 30 31 39 42 34 34 27 28 25 36
186 207 227 208 185 157 156 160 177 216 236 240 237 231 282 294 159 173 179 155 169 167 178 161 178 166 129 201 194 184 216 106 110 118 111 109 167 189 207 138 122 114 95 57 52 35 24 25 39 23 19 21 19 27
164 220 221 179 153 149 149 165 194 224 223 214 227 200 210 286 180 160 182 145 185 191 175 57 108 179 198 183 182 141 123 118 131 111 120 156 167 182 160 135 126 119 97 77 64 54 42 22 27 25 24 24 23 25
208 187 163 156 150 148 152 193 230 248 219 196 191 189 188 189 226 106 173 177 194 166 128 192 211 211 169 86 109 140 141 154 158 157 137 134 147 153 138 136 134 125 106 85 77 60 53 50 48 42 40 37 32 24
167 165 162 150 149 165 155 185 231 251 205 196 195 177 170 179 158 172 167 178 177 176 164 191 110 326 126 107 117 138 147 150 174 186 163 153 158 147 145 162 145 141 121 110 81 79 77 62 50 44 47 46 38 33
157 169 162 137 152 259 210 230 204 152 215 217 179 160 167 165 176 141 134 160 170 187 211 128 132 92 87 107 109 130 146 173 220 354 65 152 162 148 150 154 150 152 130 121 107 88 75 65 61 56 51 46 40 32
155 127 155 199 228 203 243 211 188 172 201 191 199 168 186 171 150 147 151 176 167 143 134 118 132 137 134 135 139 174 190 193 197 264 211 159 155 147 156 155 153 132 124 116 108 97 84 76 67 55 47 39 30 27
111 124 60 15 310 237 214 163 217 196 185 189 176 165 165 161 170 165 210 180 143 191 193 169 141 170 139 148 157 171 175 174 209 217 188 162 146 146 154 146 144 137 129 119 110 99 87 81 58 54 39 30 24 22
131 123 265 251 239 252 172 196 180 177 149 182 186 184 157 136 162 200 211 208 210 188 191 184 199 206 205 203 204 205 197 199 203 194 146 156 142 153 152 144 140 135 131 124 114 103 92 73 54 40 30 17 6 3
122 269 272 286 252 236 183 159 183 137 56 99 145 161 137 160 194 219 216 207 193 193 186 188 200 208 215 218 213 201 193 201 184 180 178 179 143 158 151 147 144 141 139 138 123 104 81 53 27 10 2 15 11 2
347 172 225 353 123 3 327 174 121 121 134 154 88 83 127 237 243 236 224 217 198 189 192 195 201 205 211 205 193 189 183 197 188 173 177 182 169 169 157 158 159 162 167 146 127 73 296 313 323 344 0 46 25 19
251 193 189 206 23 175 221 180 147 165 142 136 96 314 230 221 221 169 155 180 204 201 199 201 203 197 195 185 189 174 171 177 176 183 184 171 158 164 162 164 160 146 160 152 130 319 322 340 318 344 10 28 38 28
283 315 93 209 208 193 242 291 90 135 120 170 227 223 233 266 35 71 136 152 110 169 178 181 180 178 185 173 178 183 181 178 161 151 156 163 166 162 160 146 141 162 155 148 123 355 18 10 23 56 46 68 47 34
282 180 158 187 235 226 227 169 134 140 169 182 266 297 260 22 57 82 106 152 167 162 159 165 166 163 150 162 175 168 168 166 184 187 169 179 169 173 168 160 140 154 156 134 120 110 90 37 82 88 112 86 358 337
219 186 168 209 218 217 138 96 152 200 208 221 240 295 67 96 88 102 141 151 164 169 165 165 164 167 168 172 174 155 167 178 174 171 181 175 176 176 176 180 179 169 176 197 160 187 282 117 63 119 335 291 332 342
187 188 231 211 19 208 164 156 194 243 253 255 172 174 157 123 106 84 87 120 152 162 167 166 175 173 169 171 168 174 173 168 176 168 172 174 175 174 169 168 169 163 161 179 217 207 265 295 297 271 253 309 315 316
175 204 219 164 191 180 200 193 240 262 262 163 286 119 123 84 80 54 96 120 149 143 144 148 143 154 168 154 160 174 182 178 179 170 167 169 169 165 169 166 168 184 233 236 264 290 312 277 262 291 302 296 301 314
196 202 199 245 157 166 209 187 182 196 148 213 129 79 89 136 146 195 172 111 158 157 144 132 148 110 132 139 155 159 161 176 174 174 176 156 163 158 139 202 246 265 260 219 236 245 241 255 292 285 285 282 296 317